Location: Newark
(48.1281°N, 2.1556°W)
Time: 09:46:08
(UTC+00:00)

Envisat - Pass Details

Date: 23 November 2019
Orbit: 764 x 766 km, 98.1° (Epoch: 15 December)

Event Time Altitude Azimuth Distance (km) Brightness Sun altitude
Rises 18:07:25 0° 169° (S) 3,220 6.2 -17.1°
Reaches altitude 10° 18:09:43 10° 171° (S) 2,298 5.5 -17.4°
Maximum altitude 18:14:47 75° 256° (WSW) 796 3.2 -18.3°
Drops below altitude 10° 18:19:54 10° 343° (NNW) 2,314 5.6 -19.1°
Sets 18:22:13 0° 345° (NNW) 3,245 6.3 -19.5°
